User: anonymous   Login
Location: Unspecified
(0.0000°N, 0.0000°E)
Time: 08:06:58
(UTC+00:00)
Language:

Tiangong 2 - Orbit

View from above orbital plane
View from above orbital plane
View from above satellite
View from above satellite

Ground track
Ground track

The orbit data is extracted from the following two-line orbital elements,

1 41765U 16057A   17234.94230324 +.00005547 +00000-0 +75690-4 0  9998
2 41765 042.7842 318.3849 0003532 324.5554 018.7586 15.58386809053397
Epoch (UTC): 22 August 2017 22:36:55
Eccentricity: 0.0003532
inclination: 42.7842°
perigee height: 390 km
apogee height: 395 km
right ascension of ascending node: 318.3849°
argument of perigee: 324.5554°
revolutions per day: 15.58386809
mean anomaly at epoch: 18.7586°
orbit number at epoch: 5339

The dashed part of the orbit path shows where the satellite is in the earth's shadow,  

DLR